H1 CPF 2 NER 2022 6 3 9 154 01 glonass133 H2 1403201 9133 40001 2022 6 3 0 0 0 2022 6 6 23 45 0 900 1 1 0 0 0 1 H9 10 0 59733 0.00000 0 13571703.099 -11861316.442 -18045330.100 10 0 59733 900.00000 0 12649358.102 -9702290.717 -19911630.689 10 0 59733 1800.00000 0 11836370.140 -7282250.390 -21391175.306 10 0 59733 2700.00000 0 11175884.068 -4655100.730 -22455339.982 10 0 59733 3600.00000 0 10701105.471 -1882872.999 -23083575.385 10 0 59733 4500.00000 0 10433885.242 966615.384 -23263795.568 10 0 59733 5400.00000 0 10383799.898 3822338.757 -22992603.012 10 0 59733 6300.00000 0 10547765.265 6612772.959 -22275346.492 10 0 59733 7200.00000 0 10910198.870 9268625.261 -21126011.251 10 0 59733 8100.00000 0 11443723.523 11725472.455 -19566944.075 10 0 59733 9000.00000 0 12110382.092 13926198.884 -17628418.621 10 0 59733 9900.00000 0 12863312.265 15823134.466 -15348049.347 10 0 59733 10800.00000 0 13648810.972 17379805.233 -12770064.987 10 0 59733 11700.00000 0 14408701.913 18572224.813 -9944455.139 10 0 59733 12600.00000 0 15082906.901 19389674.159 -6926005.977 10 0 59733 13500.00000 0 15612113.106 19834938.002 -3773243.209 10 0 59733 14400.00000 0 15940424.138 19923988.999 -547302.246 10 0 59733 15300.00000 0 16017883.310 19685133.435 2689252.823 10 0 59733 16200.00000 0 15802762.650 19157654.799 5873638.830 10 0 59733 17100.00000 0 15263520.755 18390012.518 8944068.458 10 0 59733 18000.00000 0 14380346.345 17437671.711 11840946.916 10 0 59733 18900.00000 0 13146221.553 16360655.285 14508027.211 10 0 59733 19800.00000 0 11567458.947 15220921.357 16893501.649 10 0 59733 20700.00000 0 9663688.302 14079676.230 18951008.318 10 0 59733 21600.00000 0 7467291.990 12994735.938 20640533.096 10 0 59733 22500.00000 0 5022310.885 12018047.210 21929189.695 10 0 59733 23400.00000 0 2382864.826 11193472.156 22791862.564 10 0 59733 24300.00000 0 -388848.136 10554929.836 23211700.090 10 0 59733 25200.00000 0 -3224891.831 10124973.020 23180448.370 10 0 59733 26100.00000 0 -6054175.185 9913860.216 22698618.698 10 0 59733 27000.00000 0 -8805172.099 9919162.335 21775485.104 10 0 59733 27900.00000 0 -11408665.615 10125920.916 20428911.364 10 0 59733 28800.00000 0 -13800402.551 10507351.625 18685010.204 10 0 59733 29700.00000 0 -15923548.329 11026063.727 16577640.658 10 0 59733 30600.00000 0 -17730839.821 11635744.278 14147752.691 10 0 59733 31500.00000 0 -19186346.251 12283235.965 11442591.474 10 0 59733 32400.00000 0 -20266764.701 12910920.578 8514776.533 10 0 59733 33300.00000 0 -20962196.126 13459306.853 5421273.747 10 0 59733 34200.00000 0 -21276369.716 13869712.489 2222280.645 10 0 59733 35100.00000 0 -21226306.852 14086925.913 -1019952.667 10 0 59733 36000.00000 0 -20841439.702 14061734.080 -4242343.167 10 0 59733 36900.00000 0 -20162222.720 13753208.297 -7382210.338 10 0 59733 37800.00000 0 -19238296.849 13130650.349 -10378502.359 10 0 59733 38700.00000 0 -18126285.182 12175115.816 -13172988.350 10 0 59733 39600.00000 0 -16887314.262 10880449.585 -15711392.767 10 0 59733 40500.00000 0 -15584366.559 9253789.385 -17944449.591 10 0 59733 41400.00000 0 -14279576.364 7315515.729 -19828855.900 10 0 59733 42300.00000 0 -13031583.276 5098650.157 -21328106.572 10 0 59733 43200.00000 0 -11893054.503 2647726.656 -22413194.676 10 0 59733 44100.00000 0 -10908479.529 17183.134 -23063164.849 10 0 59733 45000.00000 0 -10112328.958 -2730660.304 -23265509.875 10 0 59733 45900.00000 0 -9527653.626 -5527952.690 -23016403.841 10 0 59733 46800.00000 0 -9165181.490 -8303896.087 -22320768.179 10 0 59733 47700.00000 0 -9022948.954 -10987455.559 -21192170.018 10 0 59733 48600.00000 0 -9086480.908 -13510083.766 -19652555.214 10 0 59733 49500.00000 0 -9329511.029 -15808348.259 -17731821.338 10 0 59733 50400.00000 0 -9715211.404 -17826353.505 -15467238.778 10 0 59733 51300.00000 0 -10197879.448 -19517858.183 -12902730.823 10 0 59733 52200.00000 0 -10725011.013 -20848000.838 -10088026.113 10 0 59733 53100.00000 0 -11239672.507 -21794562.929 -7077699.411 10 0 59733 54000.00000 0 -11683072.240 -22348717.510 -3930118.657 10 0 59733 54900.00000 0 -11997222.784 -22515232.955 -706318.221 10 0 59733 55800.00000 0 -12127582.164 -22312123.725 2531180.115 10 0 59733 56700.00000 0 -12025562.380 -21769763.191 5719575.900 10 0 59733 57600.00000 0 -11650799.134 -20929495.972 8797005.208 10 0 59733 58500.00000 0 -10973086.504 -19841808.076 11703738.718 10 0 59733 59400.00000 0 -9973894.162 -18564131.725 14383339.506 10 0 59733 60300.00000 0 -8647402.094 -17158376.923 16783758.132 10 0 59733 61200.00000 0 -7001007.941 -15688293.332 18858343.708 10 0 59733 62100.00000 0 -5055283.995 -14216773.020 20566751.410 10 0 59733 63000.00000 0 -2843383.859 -12803207.149 21875728.868 10 0 59733 63900.00000 0 -409921.793 -11501007.364 22759766.094 10 0 59733 64800.00000 0 2190630.296 -10355395.762 23201596.327 10 0 59733 65700.00000 0 4895963.066 -9401556.070 23192537.855 10 0 59733 66600.00000 0 7638284.394 -8663223.612 22732669.862 10 0 59733 67500.00000 0 10346911.689 -8151773.305 21830838.419 10 0 59733 68400.00000 0 12950994.873 -7865844.014 20504491.924 10 0 59733 69300.00000 0 15382257.189 -7791515.192 18779348.497 10 0 59733 70200.00000 0 17577639.964 -7903028.366 16688901.136 10 0 59733 71100.00000 0 19481741.168 -8164023.024 14273769.608 10 0 59733 72000.00000 0 21048945.749 -8529234.560 11580911.245 10 0 59733 72900.00000 0 22245158.595 -8946582.186 8662705.804 10 0 59733 73800.00000 0 23049067.487 -9359557.923 5575932.186 10 0 59733 74700.00000 0 23452883.081 -9709814.797 2380657.420 10 0 59733 75600.00000 0 23462525.205 -9939843.642 -860939.891 10 0 59733 76500.00000 0 23097248.179 -9995624.074 -4085787.870 10 0 59733 77400.00000 0 22388721.771 -9829136.195 -7231156.657 10 0 59733 78300.00000 0 21379607.540 -9400625.616 -10235885.683 10 0 59733 79200.00000 0 20121691.701 -8680524.959 -13041578.179 10 0 59733 80100.00000 0 18673654.346 -7650949.844 -15593738.969 10 0 59733 81000.00000 0 17098569.983 -6306705.573 -17842833.107 10 0 59733 81900.00000 0 15461245.339 -4655761.559 -19745244.826 10 0 59733 82800.00000 0 13825506.824 -2719173.252 -21264118.444 10 0 59733 83700.00000 0 12251551.599 -530454.469 -22370065.636 10 0 59733 84600.00000 0 10793472.943 1865573.976 -23041726.225 10 0 59733 85500.00000 0 9497062.916 4414411.549 -23266172.580 10 0 59734 0.00000 0 8397983.251 7053913.680 -23039150.886 10 0 59734 900.00000 0 7520379.147 9716653.213 -22365155.253 10 0 59734 1800.00000 0 6875993.952 12332506.600 -21257334.342 10 0 59734 2700.00000 0 6463818.345 14831363.082 -19737232.320 10 0 59734 3600.00000 0 6270288.909 17145841.805 -17834369.511 10 0 59734 4500.00000 0 6270026.021 19213906.373 -15585670.689 10 0 59734 5400.00000 0 6427079.336 20981269.001 -13034751.763 10 0 59734 6300.00000 0 6696627.957 22403485.177 -10231078.136 10 0 59734 7200.00000 0 7027063.457 23447652.399 -7229010.523 10 0 59734 8100.00000 0 7362367.923 24093642.851 -4086756.175 10 0 59734 9000.00000 0 7644686.719 24334819.103 -865245.272 10 0 59734 9900.00000 0 7816987.512 24178203.235 2373046.009 10 0 59734 10800.00000 0 7825693.230 23644092.586 5565303.271 10 0 59734 11700.00000 0 7623177.617 22765138.271 8649589.266 10 0 59734 12600.00000 0 7170017.648 21584925.063 11566043.301 10 0 59734 13500.00000 0 6436907.096 20156112.066 14258041.477 10 0 59734 14400.00000 0 5406149.611 18538211.920 16673295.317 10 0 59734 15300.00000 0 4072667.234 16795101.406 18764867.378 10 0 59734 16200.00000 0 2444480.428 14992367.532 20492084.245 10 0 59734 17100.00000 0 542637.698 13194599.936 21821329.229 10 0 59734 18000.00000 0 -1599403.998 11462742.790 22726699.299 10 0 59734 18900.00000 0 -3936924.096 9851616.798 23190513.505 10 0 59734 19800.00000 0 -6415562.524 8407714.742 23203662.819 10 0 59734 20700.00000 0 -8973356.896 7167362.753 22765794.264 10 0 59734 21600.00000 0 -11543109.318 6155324.112 21885325.343 10 0 59734 22500.00000 0 -14054985.291 5383903.930 20579287.863 10 0 59734 23400.00000 0 -16439237.075 4852592.167 18873003.535 10 0 59734 24300.00000 0 -18628938.421 4548259.721 16799596.975 10 0 59734 25200.00000 0 -20562616.639 4445899.096 14399354.912 10 0 59734 26100.00000 0 -22186671.869 4509878.009 11718943.641 10 0 59734 27000.00000 0 -23457482.078 4695652.528 8810499.701 10 0 59734 27900.00000 0 -24343105.314 4951866.568 5730611.455 10 0 59734 28800.00000 0 -24824507.524 5222748.087 2539211.862 10 0 59734 29700.00000 0 -24896264.341 5450699.422 -701595.443 10 0 59734 30600.00000 0 -24566707.514 5578970.885 -3928753.043 10 0 59734 31500.00000 0 -23857510.266 5554303.122 -7079484.847 10 0 59734 32400.00000 0 -22802729.780 5329425.112 -10092524.420 10 0 59734 33300.00000 0 -21447348.009 4865300.963 -12909311.724 10 0 59734 34200.00000 0 -19845373.272 4133029.598 -15475134.259 10 0 59734 35100.00000 0 -18057583.447 3115316.309 -17740190.105 10 0 59734 36000.00000 0 -16149006.424 1807453.587 -19660552.175 10 0 59734 36900.00000 0 -14186244.164 217769.555 -21199015.278 10 0 59734 37800.00000 0 -12234752.723 -1632475.182 -22325810.221 10 0 59734 38700.00000 0 -10356191.906 -3709738.280 -23019172.014 10 0 59734 39600.00000 0 -8605954.798 -5969367.037 -23265752.111 10 0 59734 40500.00000 0 -7030979.376 -8357242.005 -23060867.734 10 0 59734 41400.00000 0 -5667932.262 -10811824.892 -22408584.353 10 0 59734 42300.00000 0 -4541838.949 -13266526.098 -21321630.391 10 0 59734 43200.00000 0 -3665216.074 -15652294.263 -19821146.273 10 0 59734 44100.00000 0 -3037740.385 -17900321.025 -17936272.789 10 0 59734 45000.00000 0 -2646466.821 -19944749.373 -15703586.664 10 0 59734 45900.00000 0 -2466585.282 -21725273.844 -13166393.919 10 0 59734 46800.00000 0 -2462683.394 -23189525.144 -10373894.196 10 0 59734 47700.00000 0 -2590461.478 -24295140.464 -7380231.714 10 0 59734 48600.00000 0 -2798827.162 -25011433.697 -4243450.682 10 0 59734 49500.00000 0 -3032281.087 -25320596.180 -1024374.871 10 0 59734 50400.00000 0 -3233493.005 -25218377.925 2214567.244 10 0 59734 51300.00000 0 -3345959.411 -24714220.895 5410549.302 10 0 59734 52200.00000 0 -3316630.336 -23830838.630 8501562.629 10 0 59734 53100.00000 0 -3098394.093 -22603259.602 11427616.974 10 0 59734 54000.00000 0 -2652314.580 -21077374.076 14131903.209 10 0 59734 54900.00000 0 -1949526.000 -19308044.937 16561895.468 10 0 59734 55800.00000 0 -972704.153 -17356861.217 18670371.277 10 0 59734 56700.00000 0 282948.932 -15289627.872 20416329.994 10 0 59734 57600.00000 0 1809249.954 -13173696.376 21765791.754 10 0 59734 58500.00000 0 3585129.689 -11075247.333 22692461.382 10 0 59734 59400.00000 0 5577276.542 -9056638.252 23178244.371 10 0 59734 60300.00000 0 7741303.303 -7173926.894 23213604.712 10 0 59734 61200.00000 0 10023389.981 -5474673.401 22797757.336 10 0 59734 62100.00000 0 12362335.715 -3996112.706 21938690.968 10 0 59734 63000.00000 0 14691935.434 -2763773.372 20653020.351 10 0 59734 63900.00000 0 16943582.867 -1790600.407 18965670.059 10 0 59734 64800.00000 0 19048991.885 -1076618.453 16909395.344 10 0 59734 65700.00000 0 20942922.614 -609149.041 14524148.656 10 0 59734 66600.00000 0 22565798.163 -363572.281 11856303.733 10 0 59734 67500.00000 0 23866102.073 -304600.160 8957752.075 10 0 59734 68400.00000 0 24802455.502 -388006.866 5884889.397 10 0 59734 69300.00000 0 25345286.438 -562742.021 2697512.185 10 0 59734 70200.00000 0 25478020.453 -773336.234 -542353.533 10 0 59734 71100.00000 0 25197742.732 -962495.817 -3771667.611 10 0 59734 72000.00000 0 24515303.591 -1073775.493 -6927610.626 10 0 59734 72900.00000 0 23454863.413 -1054214.557 -9948813.140 10 0 59734 73800.00000 0 22052896.732 -856823.682 -12776554.606 10 0 59734 74700.00000 0 20356698.127 -442816.181 -15355907.783 10 0 59734 75600.00000 0 18422453.556 216511.411 -17636806.122 10 0 59734 76500.00000 0 16312958.816 1138329.385 -19575013.333 10 0 59734 77400.00000 0 14095081.442 2327317.024 -21132976.579 10 0 59734 78300.00000 0 11837072.542 3775237.459 -22280547.436 10 0 59734 79200.00000 0 9605840.888 5461063.271 -22995557.476 10 0 59734 80100.00000 0 7464302.681 7351647.797 -23264238.321 10 0 59734 81000.00000 0 5468916.612 9402914.361 -23081479.046 10 0 59734 81900.00000 0 3667505.767 11561514.220 -22450916.844 10 0 59734 82800.00000 0 2097455.680 13766884.558 -21384859.911 10 0 59734 83700.00000 0 784361.963 15953621.482 -19904044.510 10 0 59734 84600.00000 0 -258817.844 18054069.970 -18037231.047 10 0 59734 85500.00000 0 -1032074.404 20001023.640 -15820646.908 10 0 59735 0.00000 0 -1548107.253 21730422.579 -13297286.760 10 0 59735 900.00000 0 -1831547.572 23183938.375 -10516081.920 10 0 59735 1800.00000 0 -1917676.025 24311336.815 -7530957.860 10 0 59735 2700.00000 0 -1850691.239 25072523.158 -4399792.966 10 0 59735 3600.00000 0 -1681601.544 25439182.362 -1183301.572 10 0 59735 4500.00000 0 -1465829.479 25395946.684 2056138.751 10 0 59735 5400.00000 0 -1260630.251 24941041.482 5255692.970 10 0 59735 6300.00000 0 -1122433.294 24086381.891 8353284.276 10 0 59735 7200.00000 0 -1104219.422 22857115.873 11288796.089 10 0 59735 8100.00000 0 -1253044.642 21290632.268 14005237.138 10 0 59735 9000.00000 0 -1607815.683 19435074.734 16449847.057 10 0 59735 9900.00000 0 -2197411.797 17347423.161 18575121.011 10 0 59735 10800.00000 0 -3039232.979 15091222.098 20339733.519 10 0 59735 11700.00000 0 -4138236.945 12734050.465 21709343.631 10 0 59735 12600.00000 0 -5486506.819 10344837.621 22657265.775 10 0 59735 13500.00000 0 -7063369.290 7991137.199 23164993.220 10 0 59735 14400.00000 0 -8836060.041 5736471.889 23222563.868 10 0 59735 15300.00000 0 -10760910.257 3637859.515 22828760.909 10 0 59735 16200.00000 0 -12785006.160 1743623.154 21991144.069 10 0 59735 17100.00000 0 -14848253.579 91576.308 20725910.188 10 0 59735 18000.00000 0 -16885762.232 -1292341.363 19057585.237 10 0 59735 18900.00000 0 -18830450.710 -2394921.141 17018553.021 10 0 59735 19800.00000 0 -20615763.526 -3215999.754 14648429.068 10 0 59735 20700.00000 0 -22178386.300 -3768218.649 11993291.446 10 0 59735 21600.00000 0 -23460844.953 -4076238.933 9104783.147 10 0 59735 22500.00000 0 -24413879.266 -4175445.981 6039103.524 10 0 59735 23400.00000 0 -24998490.386 -4110199.414 2855908.783 10 0 59735 24300.00000 0 -25187575.575 -3931703.692 -382856.480 10 0 59735 25200.00000 0 -24967080.864 -3695590.733 -3614173.118 10 0 59735 26100.00000 0 -24336622.824 -3459318.294 -6775181.939 10 0 59735 27000.00000 0 -23309553.231 -3279495.661 -9804413.869 10 0 59735 27900.00000 0 -21912464.127 -3209251.171 -12642990.945 10 0 59735 28800.00000 0 -20184154.551 -3295754.013 -15235773.963 10 0 59735 29700.00000 0 -18174102.966 -3577995.958 -17532434.136 10 0 59735 30600.00000 0 -15940510.031 -4084927.324 -19488427.892 10 0 59735 31500.00000 0 -13547994.315 -4834026.097 -21065856.126 10 0 59735 32400.00000 0 -11065037.628 -5830360.657 -22234191.934 10 0 59735 33300.00000 0 -8561286.644 -7066185.598 -22970863.568 10 0 59735 34200.00000 0 -6104823.086 -8521087.578 -23261682.296 10 0 59735 35100.00000 0 -3759515.409 -10162675.238 -23101107.918 10 0 59735 36000.00000 0 -1582561.128 -11947784.499 -22492347.699 10 0 59735 36900.00000 0 377679.284 -13824149.210 -21447287.516 10 0 59735 37800.00000 0 2083468.448 -15732467.882 -19986257.028 10 0 59735 38700.00000 0 3509025.462 -17608780.903 -18137633.550 10 0 59735 39600.00000 0 4641352.734 -19387059.681 -15937292.257 10 0 59735 40500.00000 0 5480523.464 -21001900.391 -13427913.008 10 0 59735 41400.00000 0 6039419.258 -22391210.538 -10658156.713 10 0 59735 42300.00000 0 6342930.069 -23498776.583 -7681726.713 10 0 59735 43200.00000 0 6426651.089 -24276605.693 -4556332.722 10 0 59735 44100.00000 0 6335132.062 -24686943.827 -1342576.921 10 0 59735 45000.00000 0 6119753.230 -24703885.582 1897216.543 10 0 59735 45900.00000 0 5836317.766 -24314508.156 5100206.295 10 0 59735 46800.00000 0 5542462.480 -23519481.433 8204249.503 10 0 59735 47700.00000 0 5294996.287 -22333128.022 11149105.145 10 0 59735 48600.00000 0 5147279.002 -20782930.010 13877601.457 10 0 59735 49500.00000 0 5146751.479 -18908502.190 16336744.998 10 0 59735 50400.00000 0 5332721.745 -16760073.886 18478749.725 10 0 59735 51300.00000 0 5734501.168 -14396541.905 20261966.210 10 0 59735 52200.00000 0 6369970.088 -11883175.013 21651693.033 10 0 59735 53100.00000 0 7244634.357 -9289064.932 22620854.529 10 0 59735 54000.00000 0 8351213.794 -6684429.293 23150531.777 10 0 59735 54900.00000 0 9669781.290 -4137878.228 23230336.332 10 0 59735 55800.00000 0 11168448.235 -1713757.886 22858619.147 10 0 59735 56700.00000 0 12804569.037 530318.985 22042510.209 10 0 59735 57600.00000 0 14526415.631 2545652.994 20797787.530 10 0 59735 58500.00000 0 16275252.905 4294257.983 19148577.364 10 0 59735 59400.00000 0 17987728.901 5750206.134 17126890.794 10 0 59735 60300.00000 0 19598480.028 6900462.521 14772004.994 10 0 59735 61200.00000 0 21042842.021 7745174.646 12129700.748 10 0 59735 62100.00000 0 22259552.532 8297405.544 9251370.758 10 0 59735 63000.00000 0 23193331.235 8582322.581 6193016.037 10 0 59735 63900.00000 0 23797228.080 8635877.136 3014150.352 10 0 59735 64800.00000 0 24034640.107 8503032.187 -223365.445 10 0 59735 65700.00000 0 23880911.058 8235614.057 -3456535.625 10 0 59735 66600.00000 0 23324445.794 7889880.616 -6622463.688 10 0 59735 67500.00000 0 22367292.216 7523910.342 -9659583.355 10 0 59735 68400.00000 0 21025166.002 7194924.043 -12508861.571 10 0 59735 69300.00000 0 19326917.293 6956653.753 -15114949.341 10 0 59735 70200.00000 0 17313461.983 6856870.928 -17427257.623 10 0 59735 71100.00000 0 15036222.847 6935179.020 -19400937.357 10 0 59735 72000.00000 0 12555146.196 7221163.839 -20997744.792 10 0 59735 72900.00000 0 9936377.252 7732979.751 -22186776.003 10 0 59735 73800.00000 0 7249691.252 8476431.086 -22945057.218 10 0 59735 74700.00000 0 4565787.177 9444587.125 -23257980.454 10 0 59735 75600.00000 0 1953556.079 10617946.674 -23119577.106 10 0 59735 76500.00000 0 -522563.350 11965145.197 -22532625.081 10 0 59735 77400.00000 0 -2805033.244 13444174.949 -21508588.146 10 0 59735 78300.00000 0 -4845368.867 15004067.310 -20067389.155 10 0 59735 79200.00000 0 -6605906.920 16586967.336 -18237021.702 10 0 59735 80100.00000 0 -8061117.948 18130514.335 -16053007.669 10 0 59735 81000.00000 0 -9198409.884 19570429.474 -13557710.865 10 0 59735 81900.00000 0 -10018390.766 20843202.822 -10799519.480 10 0 59735 82800.00000 0 -10534580.993 21888767.805 -7831912.744 10 0 59735 83700.00000 0 -10772588.331 22653051.483 -4712429.242 10 0 59735 84600.00000 0 -10768781.220 23090293.933 -1501556.327 10 0 59735 85500.00000 0 -10568516.739 23165039.424 1738438.125 10 0 59736 0.00000 0 -10223998.371 22853715.630 4944709.059 10 0 59736 900.00000 0 -9791853.911 22145733.859 8055051.222 10 0 59736 1800.00000 0 -9330536.347 21044063.929 11009101.871 10 0 59736 2700.00000 0 -8897656.925 19565258.119 13749511.740 10 0 59736 3600.00000 0 -8547363.546 17738922.469 16223057.207 10 0 59736 4500.00000 0 -8327875.195 15606656.368 18381673.787 10 0 59736 5400.00000 0 -8279276.760 13220503.575 20183390.693 10 0 59736 6300.00000 0 -8431667.754 10640978.198 21593148.381 10 0 59736 7200.00000 0 -8803743.600 7934746.916 22583483.168 10 0 59736 8100.00000 0 -9401870.107 5172062.972 23135065.660 10 0 59736 9000.00000 0 -10219691.159 2424057.844 23237082.375 10 0 59736 9900.00000 0 -11238287.268 -239997.375 22887452.844 10 0 59736 10800.00000 0 -12426879.618 -2755347.638 22092877.600 10 0 59736 11700.00000 0 -13744051.248 -5064216.628 20868715.507 10 0 59736 12600.00000 0 -15139435.147 -7117974.246 19238692.169 10 0 59736 13500.00000 0 -16555799.236 -8878918.949 17234444.396 10 0 59736 14400.00000 0 -17931441.161 -10321600.896 14894908.867 10 0 59736 15300.00000 0 -19202792.383 -11433630.960 12265566.421 10 0 59736 16200.00000 0 -20307121.849 -12215942.303 9397556.366 10 0 59736 17100.00000 0 -21185224.915 -12682494.295 6346677.954 10 0 59736 18000.00000 0 -21783983.447 -12859432.151 3172298.847 10 0 59736 18900.00000 0 -22058688.304 -12783738.859 -63807.626 10 0 59736 19800.00000 0 -21975025.302 -12501437.652 -3298672.979 10 0 59736 20700.00000 0 -21510640.068 -12065422.361 -6469367.193 10 0 59736 21600.00000 0 -20656215.086 -11533008.895 -9514230.466 10 0 59736 22500.00000 0 -19416013.128 -10963312.786 -12374078.166 10 0 59736 23400.00000 0 -17807863.936 -10414564.950 -14993354.776 10 0 59736 24300.00000 0 -15862594.741 -9941480.082 -17321213.944 10 0 59736 25200.00000 0 -13622928.623 -9592789.522 -19312503.629 10 0 59736 26100.00000 0 -11141897.070 -9409042.980 -20928637.407 10 0 59736 27000.00000 0 -8480833.291 -9420771.800 -22138335.693 10 0 59736 27900.00000 0 -5707029.949 -9647090.774 -22918223.360 10 0 59736 28800.00000 0 -2891158.756 -10094796.883 -23253273.163 10 0 59736 29700.00000 0 -104558.733 -10758002.314 -23137087.401 10 0 59736 30600.00000 0 2583495.037 -11618316.677 -22572013.329 10 0 59736 31500.00000 0 5108429.744 -12645570.472 -21569090.781 10 0 59736 32400.00000 0 7412812.146 -13799049.337 -20147833.546 10 0 59736 33300.00000 0 9448485.112 -15029187.484 -18335848.879 10 0 59736 34200.00000 0 11178316.159 -16279649.587 -16168302.484 10 0 59736 35100.00000 0 12577486.881 -17489714.362 -13687238.991 10 0 59736 36000.00000 0 13634271.070 -18596860.365 -10940770.582 10 0 59736 36900.00000 0 14350270.391 -19539446.061 -7982148.989 10 0 59736 37800.00000 0 14740098.972 -20259372.059 -4868738.228 10 0 59736 38700.00000 0 14830531.124 -20704613.985 -1660907.431 10 0 59736 39600.00000 0 14659148.640 -20831519.576 1579135.078 10 0 59736 40500.00000 0 14272545.126 -20606773.248 4788544.208 10 0 59736 41400.00000 0 13724163.264 -20008945.080 7905053.914 10 0 59736 42300.00000 0 13071856.312 -19029558.397 10868182.771 10 0 59736 43200.00000 0 12375276.781 -17673630.147 13620406.066 10 0 59736 44100.00000 0 11693202.430 -15959660.198 16108271.631 10 0 59736 45000.00000 0 11080912.424 -13919068.747 18283437.748 10 0 59736 45900.00000 0 10587724.399 -11595103.953 20103613.058 10 0 59736 46800.00000 0 10254796.421 -9041264.014 21533380.262 10 0 59736 47700.00000 0 10113286.796 -6319298.189 22544887.644 10 0 59736 48600.00000 0 10182949.684 -3496868.792 23118394.957 10 0 59736 49500.00000 0 10471226.288 -644970.290 23242662.970 10 0 59736 50400.00000 0 10972870.619 2164788.023 22915178.803 10 0 59736 51300.00000 0 11670126.500 4862923.584 22142212.289 10 0 59736 52200.00000 0 12533449.266 7384732.993 20938701.697 10 0 59736 53100.00000 0 13522742.722 9672745.275 19327970.370 10 0 59736 54000.00000 0 14589060.024 11678874.201 17341279.083 10 0 59736 54900.00000 0 15676697.452 13366180.177 15017222.145 10 0 59736 55800.00000 0 16725593.068 14710168.320 12400978.471 10 0 59736 56700.00000 0 17673929.092 15699568.830 9543431.882 10 0 59736 57600.00000 0 18460827.805 16336567.469 6500177.672 10 0 59736 58500.00000 0 19029026.484 16636477.171 3330435.132 10 0 59736 59400.00000 0 19327417.520 16626865.596 95887.742 10 0 59736 60300.00000 0 19313345.444 16346176.604 -3140525.586 10 0 59736 61200.00000 0 18954562.824 15841905.123 -6315843.591 10 0 59736 62100.00000 0 18230761.595 15168403.988 -9368315.113 10 0 59736 63000.00000 0 17134614.457 14384416.789 -12238605.961 10 0 59736 63900.00000 0 15672282.016 13550442.297 -14870955.903 10 0 59736 64800.00000 0 13863363.970 12726042.831 -17214262.891 10 0 59736 65700.00000 0 11740296.290 11967210.924 -19223073.327 10 0 59736 66600.00000 0 9347219.652 11323905.711 -20858459.377 10 0 59736 67500.00000 0 6738366.448 10837862.816 -22088766.913 10 0 59736 68400.00000 0 3976033.598 10540769.553 -22890220.457 10 0 59736 69300.00000 0 1128225.466 10452881.559 -23247374.338 10 0 59736 70200.00000 0 -1733935.554 10582138.151 -23153402.417 10 0 59736 71100.00000 0 -4538923.929 10923812.768 -22610221.687 10 0 59736 72000.00000 0 -7217539.536 11460712.376 -21628448.113 10 0 59736 72900.00000 0 -9705537.851 12163916.950 -20227186.101 10 0 59736 73800.00000 0 -11946054.020 12994027.635 -18433655.841 10 0 59736 74700.00000 0 -13891721.485 13902871.170 -16282665.725 10 0 59736 75600.00000 0 -15506398.660 14835589.138 -13815939.718 10 0 59736 76500.00000 0 -16766433.178 15733024.642 -11081312.201 10 0 59736 77400.00000 0 -17661412.264 16534306.466 -8131805.374 10 0 59736 78300.00000 0 -18194369.061 17179522.477 -5024606.465 10 0 59736 79200.00000 0 -18381437.232 17612370.048 -1819964.035 10 0 59736 80100.00000 0 -18250969.008 17782672.057 1419975.604 10 0 59736 81000.00000 0 -17842154.269 17648652.421 4632369.595 10 0 59736 81900.00000 0 -17203199.065 17178874.946 7754894.292 10 0 59736 82800.00000 0 -16389140.380 16353763.256 10726951.978 10 0 59736 83700.00000 0 -15459389.272 15166636.901 13490845.194 10 0 59736 84600.00000 0 -14475105.819 13624218.920 15992895.929 10 0 59736 85500.00000 0 -13496516.445 11746592.176 18184487.865 99